Temp
-0 -0 0 0 -0 -0 0 0 0 0 0 1 1 2 2 2 3 5 3 4 4 1 1 4 4 4 2 2 -2 1 -0 -1 -4 -6 -4 -4 -1 0 0 1 2 1 -2 -4 -3 -4 -1 3 4 3 3 5 4 3
-1 -1 -1 -0 -0 -0 -0 -0 -0 0 0 0 1 1 1 2 2 3 2 3 3 2 1 2 2 3 4 3 3 1 1 -2 -1 -6 -7 -6 -4 -5 -0 -1 2 -1 -0 -1 0 -0 1 2 1 3 4 4 4 3
-1 -1 -1 -1 -1 -0 -0 -0 -0 -0 -0 0 0 0 1 1 1 2 2 2 3 2 2 3 2 2 2 3 3 1 1 1 1 1 -5 -6 -3 -4 -4 -2 -0 1 2 -1 -0 2 2 2 4 5 4 4 5 5
-2 -1 -1 -1 -1 -1 -1 -1 -1 -1 -0 -0 -0 -0 -0 0 1 2 2 2 2 1 -3 1 2 2 2 2 2 2 1 1 1 1 -3 -5 -4 -2 -3 -1 -2 -1 1 0 1 2 2 3 4 4 4 4 4 4
-2 -2 -2 -2 -2 -1 -1 -1 -1 -1 -1 -1 -1 -1 -1 -0 1 1 1 1 1 1 -3 0 1 2 2 2 2 1 1 1 1 -3 -4 -1 -3 -3 -3 -2 -1 -0 -0 -2 -1 2 2 2 3 4 3 3 3 3
-2 -2 -2 -2 -2 -2 -2 -2 -2 -2 -1 -1 -1 -1 -1 -0 0 1 1 0 0 1 -0 -5 0 1 2 2 2 1 1 1 1 -0 -3 -1 0 -1 -5 -3 -1 2 2 2 1 2 2 2 3 2 3 3 2 3
-2 -2 -2 -2 -2 -2 -2 -2 -2 -2 -1 -1 -1 -1 -1 -0 1 -1 -2 -2 -1 -0 -1 -5 -5 1 1 1 1 1 1 1 1 -0 -3 -1 -1 -0 -4 -1 1 1 1 1 1 1 1 1 2 1 1 1 1 1
-2 -2 -2 -2 -2 -2 -2 -2 -2 -2 -2 -2 -2 -1 -1 -1 -1 -2 -2 -2 -1 -1 -1 -6 -5 -2 1 1 1 1 1 1 0 0 -1 -2 -1 -1 -2 1 1 2 2 1 1 1 0 -0 0 0 0 -0 -0 -0
-3 -3 -3 -3 -2 -2 -2 -2 -2 -2 -2 -1 -1 -1 -1 -1 -2 -3 -2 -2 -1 -2 -4 -5 -5 -7 0 0 0 0 1 -6 -0 -4 -2 -1 -1 -1 0 1 1 2 1 1 1 1 0 -1 -1 -1 -1 -1 -1 -1
-3 -3 -3 -3 -3 -3 -3 -3 -2 -2 -2 -2 -2 -1 -2 -3 -3 -3 -3 -2 -2 -3 -3 -6 -2 -5 -1 -1 -3 -2 -1 -3 -3 -2 -1 -3 -1 1 2 2 2 2 2 1 1 0 0 -1 -2 -2 -3 -2 -2 -2
-3 -3 -3 -3 -3 -3 -3 -2 -2 -2 -2 -2 -2 -3 -3 -3 -3 -3 -3 -4 -4 -5 -3 -2 -2 -3 -1 -4 -4 -1 -4 -2 -2 -1 -1 -1 -2 -0 2 2 2 2 2 1 0 -0 -1 -2 -3 -4 -4 -4 -4 -3
-2 -2 -2 -3 -3 -3 -3 -2 -2 -2 -3 -3 -3 -3 -3 -3 -3 -4 -7 -3 -3 -2 -3 -3 -2 -2 -2 -2 -4 -3 -2 -2 -0 -1 -2 -2 -2 1 1 1 1 1 1 0 -1 -2 -3 -4 -4 -4 -4 -4 -4 -4
-2 -2 -3 -3 -3 -3 -3 -3 -2 -2 -2 -3 -3 -2 -3 -3 -4 -4 -5 -2 -3 -1 0 -1 -3 -2 -2 -2 -2 -4 -4 -4 -2 -7 -3 -1 0 1 0 0 -0 -0 -1 -2 -4 -5 -5 -5 -5 -5 -5 -5 -5 -4
-2 -3 -3 -2 -3 -3 -3 -3 -3 -3 -2 -3 -3 -8 -6 -6 -4 -2 -1 -2 0 1 1 -0 -1 -2 -2 -2 -3 -2 -3 -3 -5 -5 -1 -2 -0 -1 -1 -2 -2 -2 -4 -5 -5 -5 -5 -5 -6 -6 -6 -5 -5 -4
-3 -3 -2 -2 -2 -3 -3 -3 -3 -3 -3 -3 -2 -7 -4 -2 -1 0 1 1 1 1 0 -1 -2 -2 -1 -1 -2 -1 -3 -4 -3 -4 -1 -2 -2 -2 -2 -3 -4 -5 -5 -6 -6 -6 -6 -6 -6 -6 -5 -5 -5 -5
-3 -3 -3 -3 -3 -3 -3 -3 -3 -3 -3 -4 -3 -4 -2 -4 -5 -1 -0 0 -0 -0 -0 -1 -3 -1 -2 -1 -1 -1 -0 -2 -2 -2 -2 -2 -3 -3 -4 -5 -5 -6 -6 -6 -6 -6 -6 -6 -6 -6 -5 -5 -5 -5
-4 -3 -3 -3 -3 -3 -4 -4 -3 -3 -5 -5 -5 -3 -2 -2 -3 -2 -0 0 -0 -1 -4 -4 -3 -1 -3 -0 0 -0 -1 -1 -2 -2 -3 -2 -3 -3 -4 -4 -6 -6 -5 -5 -5 -5 -6 -6 -6 -6 -5 -5 -5 -5
-4 -4 -4 -4 -4 -4 -4 -5 -4 -4 -4 -5 -5 -2 -2 -1 -1 -1 -0 -0 -1 -2 -1 -3 -2 -3 -4 -1 -2 -3 -3 -3 -3 -3 -3 -3 -3 -4 -4 -4 -5 -5 -5 -5 -5 -5 -6 -6 -5 -6 -6 -6 -5 -5
-4 -4 -5 -4 -4 -4 -5 -5 -4 -5 -4 -4 -3 -2 -2 -1 -0 -0 -0 -1 -1 -1 -1 -3 -2 -2 -4 -2 -5 -3 -3 -4 -4 -4 -4 -4 -5 -5 -5 -5 -5 -5 -5 -5 -5 -6 -6 -6 -6 -6 -6 -6 -5 -5
-5 -5 -5 -5 -4 -4 -4 -4 -5 -5 -4 -2 -2 -2 -1 -0 0 0 -0 -1 -1 -2 -2 -3 -4 -3 -2 -3 -4 -4 -4 -4 -5 -5 -5 -4 -5 -6 -5 -4 -4 -5 -5 -5 -6 -6 -6 -6 -7 -7 -7 -6 -6 -6
-5 -4 -5 -5 -5 -4 -4 -4 -5 -5 -3 -2 -1 -1 -1 -0 -1 -1 -2 -2 -2 -3 -4 -2 -2 -3 -4 -4 -4 -5 -5 -5 -5 -5 -5 -5 -5 -5 -5 -5 -5 -5 -5 -5 -5 -6 -6 -6 -7 -7 -7 -7 -7 -7
-6 -5 -6 -6 -5 -4 -4 -3 -3 -3 -3 -2 -1 -0 -1 -4 -3 -2 -1 -2 -3 -1 -1 -2 -3 -4 -4 -5 -5 -5 -5 -5 -5 -5 -5 -5 -5 -5 -5 -5 -5 -5 -5 -5 -6 -6 -6 -7 -7 -7 -7 -7 -7 -7
-6 -6 -6 -5 -5 -5 -3 -4 -3 -3 -4 -4 -2 -3 -6 -5 -1 -1 -3 -2 -1 -3 -3 -3 -3 -4 -5 -5 -5 -5 -6 -6 -6 -6 -6 -5 -5 -5 -5 -5 -5 -5 -5 -6 -6 -6 -6 -6 -7 -7 -7 -7 -7 -7
-6 -6 -6 -6 -6 -7 -4 -3 -3 -3 -2 -4 -3 -2 -3 -4 -2 -3 -4 -4 -4 -4 -4 -4 -5 -4 -5 -6 -6 -6 -6 -6 -6 -6 -6 -7 -6 -6 -6 -6 -5 -5 -5 -6 -6 -6 -6 -6 -6 -6 -7 -7 -7 -7
-5 -5 -5 -7 -5 -5 -6 -7 -4 -2 -4 -3 -3 -3 -4 -2 -2 -2 -3 -6 -7 -6 -6 -6 -5 -6 -6 -7 -8 -8 -7 -7 -7 -6 -8 -7 -8 -7 -7 -7 -6 -6 -6 -6 -6 -7 -7 -7 -7 -7 -7 -7 -7 -7
-9 -7 -7 -8 -8 -7 -5 -6 -8 -5 -5 -4 -4 -5 -4 -3 -4 -6 -8 -9 -10 -10 -9 -8 -8 -8 -8 -9 -9 -8 -8 -8 -8 -8 -8 -8 -8 -8 -8 -8 -8 -8 -7 -7 -7 -8 -8 -8 -7 -7 -7 -7 -7 -8
-11 -12 -8 -8 -8 -7 -8 -6 -4 -5 -6 -6 -7 -6 -6 -7 -8 -9 -11 -11 -11 -11 -10 -10 -10 -10 -10 -11 -10 -10 -10 -9 -9 -9 -9 -9 -8 -8 -8 -8 -8 -9 -8 -8 -8 -8 -8 -8 -8 -7 -7 -7 -7 -7
-9 -10 -14 -9 -8 -8 -12 -9 -9 -10 -9 -9 -9 -7 -8 -9 -10 -12 -12 -12 -11 -11 -11 -11 -12 -12 -12 -12 -12 -12 -11 -10 -9 -9 -9 -9 -9 -9 -9 -9 -9 -9 -9 -8 -8 -8 -9 -9 -8 -8 -8 -8 -8 -8
-9 -10 -9 -16 -11 -10 -10 -10 -10 -10 -10 -10 -12 -9 -11 -13 -13 -13 -13 -13 -13 -13 -13 -13 -13 -13 -13 -13 -13 -13 -13 -12 -11 -10 -10 -10 -9 -9 -10 -10 -9 -9 -9 -9 -9 -9 -9 -9 -9 -9 -9 -9 -8 -8
-10 -10 -10 -12 -17 -11 -11 -10 -10 -10 -10 -10 -10 -11 -13 -14 -15 -14 -14 -14 -14 -15 -15 -15 -15 -15 -15 -15 -14 -14 -14 -14 -14 -14 -13 -13 -12 -12 -11 -11 -11 -10 -10 -10 -10 -10 -9 -9 -9 -9 -9 -9 -9 -9
-11 -11 -10 -11 -13 -11 -11 -11 -10 -10 -10 -10 -10 -10 -14 -15 -16 -16 -16 -16 -16 -16 -15 -16 -16 -16 -16 -16 -16 -15 -14 -14 -15 -15 -14 -14 -14 -13 -12 -12 -12 -11 -11 -11 -11 -11 -10 -10 -9 -9 -9 -9 -9 -9
-11 -11 -12 -15 -14 -11 -11 -11 -12 -11 -10 -11 -12 -12 -14 -14 -15 -16 -17 -16 -16 -16 -17 -17 -17 -17 -17 -17 -17 -16 -16 -15 -15 -15 -15 -14 -14 -13 -13 -13 -13 -12 -12 -12 -11 -11 -11 -11 -10 -10 -10 -9 -9 -9
-12 -12 -12 -12 -14 -14 -12 -13 -13 -14 -12 -12 -13 -14 -14 -15 -16 -16 -17 -17 -17 -17 -17 -18 -18 -18 -17 -17 -17 -16 -16 -16 -16 -16 -15 -15 -14 -14 -14 -13 -13 -13 -13 -13 -12 -12 -12 -12 -11 -11 -11 -10 -10 -11
Height
1293 1291 1289 1289 1288 1288 1290 1293 1297 1302 1305 1309 1313 1317 1321 1323 1328 1331 1337 1345 1348 1358 1369 1370 1374 1379 1386 1390 1402 1406 1415 1419 1423 1437 1439 1443 1437 1438 1440 1433 1430 1434 1448 1458 1453 1458 1443 1425 1422 1426 1420 1413 1410 1410
1311 1309 1307 1306 1306 1306 1308 1309 1312 1315 1318 1320 1324 1328 1332 1334 1338 1340 1343 1352 1357 1358 1370 1373 1377 1382 1386 1390 1395 1404 1408 1411 1417 1430 1436 1437 1443 1445 1436 1441 1427 1439 1432 1435 1434 1431 1425 1426 1424 1415 1414 1409 1406 1404
1325 1324 1323 1321 1320 1320 1321 1322 1323 1326 1328 1331 1335 1338 1342 1343 1345 1346 1347 1353 1358 1365 1374 1378 1382 1385 1388 1393 1395 1400 1408 1413 1418 1419 1427 1434 1437 1437 1446 1435 1428 1423 1420 1426 1426 1416 1418 1415 1413 1410 1409 1404 1401 1399
1339 1336 1334 1334 1333 1333 1334 1335 1335 1337 1338 1339 1342 1343 1346 1348 1352 1353 1351 1356 1358 1366 1379 1385 1384 1386 1390 1392 1396 1401 1406 1412 1416 1421 1426 1432 1434 1429 1432 1426 1428 1423 1419 1418 1418 1412 1412 1407 1407 1404 1402 1400 1398 1394
1348 1347 1346 1344 1343 1341 1342 1343 1344 1346 1347 1347 1352 1353 1353 1354 1357 1354 1354 1357 1362 1367 1379 1383 1384 1387 1389 1393 1398 1402 1406 1411 1417 1423 1426 1427 1428 1429 1424 1425 1418 1412 1411 1418 1413 1405 1405 1402 1401 1399 1397 1395 1393 1389
1359 1356 1355 1354 1353 1354 1354 1353 1354 1354 1354 1358 1358 1357 1357 1358 1359 1356 1360 1367 1368 1370 1374 1385 1389 1390 1392 1397 1402 1406 1409 1413 1417 1419 1422 1421 1421 1422 1426 1419 1401 1401 1402 1403 1402 1399 1398 1394 1392 1391 1390 1388 1387 1385
1366 1364 1363 1362 1361 1360 1360 1360 1359 1360 1361 1360 1360 1362 1362 1362 1360 1360 1371 1374 1374 1374 1378 1390 1391 1393 1396 1400 1403 1406 1408 1410 1412 1415 1415 1415 1415 1417 1415 1404 1392 1399 1397 1394 1395 1393 1389 1387 1386 1386 1384 1382 1380 1378
1373 1371 1370 1368 1367 1367 1366 1366 1366 1366 1366 1365 1367 1368 1368 1367 1367 1370 1374 1378 1378 1379 1383 1392 1397 1395 1398 1400 1403 1404 1405 1406 1408 1408 1408 1407 1408 1408 1403 1389 1389 1389 1388 1388 1388 1386 1384 1382 1380 1379 1377 1375 1373 1372
1379 1377 1376 1375 1374 1373 1372 1371 1370 1369 1369 1370 1371 1371 1371 1370 1372 1377 1379 1380 1381 1386 1388 1393 1400 1411 1400 1401 1401 1401 1401 1407 1403 1402 1401 1403 1401 1399 1385 1383 1383 1383 1383 1382 1381 1380 1379 1377 1376 1374 1372 1370 1368 1366
1383 1382 1381 1380 1379 1379 1378 1377 1376 1375 1375 1375 1374 1374 1377 1380 1382 1383 1384 1384 1386 1389 1392 1396 1398 1401 1399 1398 1398 1400 1400 1402 1403 1396 1395 1397 1391 1381 1379 1379 1379 1379 1380 1379 1377 1375 1374 1372 1371 1369 1367 1366 1364 1362
1386 1385 1384 1384 1383 1382 1381 1381 1380 1379 1378 1377 1377 1381 1384 1384 1386 1387 1388 1390 1393 1395 1394 1395 1395 1397 1398 1401 1401 1399 1401 1399 1399 1393 1394 1390 1386 1378 1376 1376 1377 1377 1377 1376 1375 1373 1370 1368 1366 1364 1361 1360 1357 1355
1388 1388 1387 1387 1386 1385 1384 1384 1383 1382 1382 1383 1383 1385 1386 1387 1388 1391 1395 1392 1392 1392 1393 1394 1394 1395 1397 1397 1399 1399 1398 1397 1392 1390 1393 1389 1378 1374 1375 1376 1375 1374 1373 1372 1371 1369 1366 1364 1362 1359 1357 1354 1352 1349
1389 1388 1388 1388 1388 1387 1386 1386 1385 1385 1385 1385 1386 1387 1388 1391 1392 1394 1399 1391 1393 1390 1390 1391 1393 1393 1395 1397 1398 1399 1401 1399 1389 1402 1390 1378 1374 1373 1374 1374 1373 1372 1371 1369 1366 1364 1362 1359 1357 1355 1352 1350 1347 1344
1388 1388 1388 1388 1388 1388 1388 1388 1387 1387 1387 1387 1388 1394 1393 1394 1390 1386 1385 1386 1385 1386 1387 1388 1390 1392 1392 1395 1395 1394 1391 1389 1398 1400 1378 1373 1373 1373 1374 1373 1371 1369 1367 1365 1363 1360 1358 1355 1352 1350 1348 1346 1343 1340
1388 1387 1387 1387 1387 1388 1388 1389 1389 1389 1389 1389 1389 1395 1387 1383 1382 1383 1384 1384 1384 1385 1385 1386 1387 1388 1388 1389 1389 1388 1392 1393 1386 1386 1376 1375 1375 1373 1373 1372 1369 1367 1365 1363 1360 1357 1354 1352 1350 1347 1345 1342 1339 1336
1387 1387 1387 1386 1387 1387 1388 1388 1389 1390 1389 1389 1387 1385 1381 1382 1381 1380 1381 1382 1383 1383 1383 1384 1386 1385 1385 1382 1381 1381 1378 1381 1380 1378 1377 1376 1375 1373 1372 1370 1368 1365 1363 1361 1358 1355 1352 1350 1347 1344 1342 1339 1337 1333
1386 1387 1387 1386 1386 1386 1387 1389 1390 1389 1388 1386 1381 1379 1380 1380 1379 1378 1379 1380 1380 1381 1383 1383 1387 1381 1379 1374 1372 1372 1371 1375 1377 1376 1374 1374 1372 1371 1369 1367 1365 1362 1360 1358 1355 1353 1350 1348 1345 1342 1339 1337 1334 1331
1384 1385 1385 1385 1385 1386 1387 1388 1389 1387 1384 1379 1379 1374 1375 1375 1374 1375 1376 1377 1378 1378 1379 1380 1379 1379 1380 1370 1373 1374 1375 1375 1375 1374 1374 1372 1370 1369 1368 1366 1363 1360 1358 1356 1353 1351 1348 1345 1342 1340 1337 1334 1332 1330
1381 1382 1382 1382 1383 1384 1384 1384 1385 1381 1376 1373 1370 1370 1371 1370 1368 1369 1370 1372 1373 1374 1375 1376 1376 1373 1372 1369 1371 1372 1373 1373 1372 1372 1372 1370 1368 1367 1364 1363 1361 1359 1357 1354 1352 1349 1347 1344 1341 1338 1335 1333 1331 1330
1378 1378 1377 1379 1380 1378 1377 1376 1376 1373 1369 1365 1363 1363 1364 1362 1362 1363 1364 1366 1368 1371 1371 1370 1367 1364 1366 1367 1368 1369 1370 1370 1370 1369 1369 1368 1366 1364 1362 1360 1358 1357 1355 1353 1351 1348 1346 1343 1341 1337 1335 1333 1332 1330
1375 1375 1374 1375 1373 1374 1373 1367 1365 1364 1361 1358 1356 1357 1357 1356 1357 1357 1358 1361 1363 1363 1362 1359 1360 1362 1364 1365 1366 1366 1367 1368 1367 1367 1366 1364 1362 1361 1359 1358 1357 1355 1353 1352 1350 1347 1345 1342 1340 1337 1335 1332 1331 1330
1371 1372 1372 1371 1370 1366 1361 1359 1359 1357 1358 1353 1353 1353 1351 1351 1350 1350 1352 1356 1354 1350 1351 1351 1354 1357 1360 1362 1363 1365 1365 1365 1365 1364 1363 1361 1360 1358 1356 1355 1354 1353 1352 1350 1349 1347 1344 1342 1340 1338 1336 1334 1333 1332
1369 1369 1370 1368 1366 1360 1354 1353 1353 1351 1350 1346 1347 1346 1345 1343 1342 1344 1346 1345 1343 1342 1344 1347 1350 1353 1356 1359 1361 1362 1363 1362 1362 1361 1360 1359 1358 1357 1355 1354 1353 1352 1351 1350 1348 1347 1344 1342 1340 1338 1337 1335 1334 1334
1365 1366 1364 1361 1358 1353 1348 1345 1345 1342 1339 1339 1337 1337 1335 1334 1336 1337 1338 1337 1338 1339 1342 1344 1347 1351 1354 1357 1358 1359 1359 1360 1359 1359 1358 1357 1356 1355 1354 1352 1350 1350 1349 1348 1346 1345 1344 1342 1340 1339 1337 1336 1335 1335
1363 1358 1357 1353 1351 1349 1346 1343 1338 1336 1339 1336 1330 1329 1327 1327 1329 1329 1330 1343 1343 1343 1343 1344 1347 1350 1352 1354 1355 1356 1356 1356 1356 1356 1356 1356 1354 1353 1353 1351 1349 1348 1347 1346 1345 1344 1343 1341 1340 1338 1337 1336 1335 1335
1362 1359 1357 1355 1354 1352 1348 1345 1345 1341 1340 1338 1332 1334 1329 1325 1327 1339 1347 1352 1349 1347 1347 1347 1347 1349 1351 1354 1354 1354 1354 1353 1353 1352 1353 1353 1352 1351 1350 1349 1348 1347 1346 1345 1343 1341 1340 1338 1337 1336 1335 1335 1334 1334
1364 1363 1360 1360 1357 1355 1352 1346 1342 1342 1341 1341 1341 1337 1333 1339 1345 1353 1356 1357 1355 1353 1351 1350 1350 1351 1352 1353 1354 1353 1351 1350 1350 1350 1351 1349 1348 1347 1347 1347 1346 1346 1344 1343 1341 1340 1338 1336 1335 1334 1333 1333 1332 1332
1364 1363 1365 1360 1357 1355 1355 1351 1350 1352 1352 1351 1347 1343 1345 1348 1354 1357 1356 1356 1356 1355 1354 1353 1353 1352 1353 1353 1353 1352 1350 1348 1348 1349 1348 1347 1346 1346 1344 1343 1343 1343 1342 1341 1339 1338 1337 1335 1333 1332 1332 1331 1331 1330
1365 1364 1362 1361 1358 1355 1355 1355 1356 1357 1357 1354 1354 1351 1354 1356 1358 1358 1358 1358 1357 1357 1356 1354 1353 1353 1353 1353 1352 1351 1349 1347 1346 1346 1345 1344 1342 1342 1341 1341 1340 1339 1338 1337 1336 1335 1334 1333 1332 1330 1329 1329 1328 1328
1366 1365 1363 1361 1362 1360 1360 1360 1358 1356 1355 1354 1354 1354 1356 1359 1360 1359 1359 1359 1358 1357 1357 1355 1354 1353 1351 1350 1349 1349 1347 1347 1346 1345 1343 1342 1341 1339 1336 1336 1335 1334 1333 1332 1331 1331 1330 1329 1328 1328 1327 1326 1326 1326
1366 1365 1363 1361 1360 1359 1359 1357 1355 1353 1351 1351 1350 1350 1352 1358 1360 1361 1360 1360 1359 1358 1356 1354 1353 1352 1350 1348 1347 1346 1344 1344 1343 1342 1342 1340 1338 1336 1334 1332 1331 1330 1329 1327 1326 1325 1325 1325 1324 1323 1324 1324 1324 1324
1365 1364 1364 1365 1361 1360 1358 1356 1353 1351 1349 1348 1348 1347 1351 1354 1358 1361 1362 1361 1359 1356 1355 1353 1351 1349 1349 1347 1346 1344 1342 1341 1340 1340 1339 1337 1335 1332 1330 1328 1327 1326 1324 1323 1322 1320 1320 1319 1319 1318 1319 1320 1320 1321
1365 1364 1363 1363 1361 1360 1359 1357 1354 1352 1351 1351 1351 1352 1352 1355 1359 1362 1362 1361 1358 1355 1353 1352 1350 1348 1346 1344 1342 1340 1338 1338 1336 1335 1335 1333 1330 1327 1326 1324 1323 1321 1320 1319 1318 1316 1315 1315 1314 1314 1315 1317 1318 1319
Wind_Speed
39 40 40 40 40 40 40 38 34 31 30 29 28 26 24 23 21 24 26 21 23 17 24 22 19 16 14 13 4 6 6 3 4 3 3 3 3 4 3 3 3 4 3 3 1 3 8 5 8 3 8 11 13 10
36 36 36 35 35 34 33 31 29 27 26 25 23 22 21 20 18 18 26 25 21 16 15 21 21 17 17 13 24 4 7 3 4 4 1 3 1 1 2 2 2 2 5 3 4 3 8 23 13 32 22 14 12 13
34 33 31 31 30 29 28 27 26 25 24 23 22 21 21 21 20 23 27 23 30 22 17 14 11 9 10 10 11 7 3 5 5 6 4 2 1 3 3 4 4 3 1 2 2 5 12 20 21 20 22 21 16 11
29 28 27 27 28 28 26 25 24 21 20 20 20 22 24 22 20 18 24 17 18 11 5 6 9 10 8 7 8 7 16 12 12 6 4 2 2 6 3 4 4 6 1 6 10 16 15 21 18 19 20 21 27 22
26 26 25 25 24 24 23 22 22 22 22 22 20 19 18 17 16 20 23 21 15 8 5 3 6 6 5 5 3 6 9 7 6 4 2 3 3 2 3 1 8 7 7 4 7 15 11 17 19 19 13 9 9 12
23 23 24 24 23 23 22 22 21 21 20 19 19 18 17 15 15 16 12 17 13 12 6 2 3 3 4 8 8 10 10 11 15 7 4 5 7 6 3 3 6 14 19 18 13 22 26 34 34 17 14 13 14 15
20 20 21 21 21 22 22 21 21 20 19 20 19 19 17 16 11 13 9 10 9 9 6 3 3 4 7 8 12 15 16 10 11 9 6 7 8 10 3 11 16 25 32 34 30 29 18 10 11 14 15 20 20 21
18 17 17 17 17 18 18 18 19 19 19 18 17 15 16 17 19 19 14 8 7 8 5 3 2 3 3 3 3 7 10 12 7 8 3 3 4 7 5 10 18 21 21 14 17 15 17 21 21 21 19 16 17 16
15 15 14 14 14 15 15 14 14 13 12 12 11 11 10 10 9 8 6 4 4 6 3 3 3 2 3 3 4 3 4 1 4 3 3 4 2 5 10 13 17 14 8 10 12 18 21 14 12 12 12 13 13 14
11 13 12 11 11 10 10 9 9 8 7 7 5 5 5 6 8 5 3 3 4 4 4 1 0 1 0 0 1 2 1 2 1 4 5 2 4 20 22 24 24 24 21 17 19 21 18 21 18 14 14 16 19 22
7 8 9 10 9 7 6 5 7 7 5 6 6 6 6 5 4 4 3 3 2 2 3 3 4 2 1 2 2 2 2 2 2 3 4 3 3 2 4 7 12 10 9 13 14 17 17 14 16 18 19 17 15 15
3 4 5 6 6 6 4 5 7 12 9 6 5 5 3 3 3 3 1 1 2 2 4 4 4 6 2 3 2 2 2 1 4 4 1 3 3 7 12 11 5 5 8 12 13 16 17 15 15 17 17 15 16 18
2 2 2 3 3 4 4 5 4 5 5 4 3 2 2 1 1 3 1 1 1 3 5 4 1 5 3 4 2 1 1 4 1 2 3 3 4 1 7 7 5 9 12 15 16 14 14 15 15 15 15 15 15 18
4 4 4 3 2 2 2 3 4 4 4 3 1 3 2 2 3 3 1 3 3 4 5 6 3 4 5 3 2 2 4 2 3 0 4 2 8 5 1 4 8 13 14 15 16 16 15 16 17 14 13 13 15 18
4 5 5 5 4 3 3 3 2 3 2 2 1 3 4 7 5 4 3 3 1 4 5 2 2 5 2 2 3 2 2 3 5 4 0 9 11 9 10 11 12 12 13 15 15 15 16 15 14 15 12 13 15 15
7 6 4 3 4 4 6 6 4 2 2 2 4 3 5 2 4 2 3 1 0 1 1 1 1 2 4 2 4 6 3 4 1 2 4 7 7 8 10 13 11 11 12 13 14 14 14 13 13 14 11 12 15 15
8 3 2 3 3 5 6 6 2 3 2 3 5 10 13 9 8 7 3 3 2 1 1 2 3 7 2 3 4 3 2 2 4 4 9 12 11 9 12 15 12 11 11 11 13 13 13 12 12 12 13 12 13 13
12 8 8 5 6 7 9 7 3 4 6 10 4 8 15 12 9 10 8 7 5 6 4 3 1 3 4 3 0 1 4 1 2 7 8 6 7 9 12 14 13 9 10 11 12 12 13 13 11 13 14 9 9 10
11 12 11 8 12 13 6 9 9 5 13 8 13 18 11 11 16 16 14 9 9 8 3 3 3 3 3 1 2 3 1 2 6 7 7 9 12 13 14 9 7 7 9 12 12 12 12 13 14 13 11 8 7 7
11 11 9 18 13 5 6 7 11 6 5 9 13 16 14 12 13 11 12 14 15 6 4 3 4 3 4 6 5 4 2 3 6 5 6 7 9 10 7 9 8 8 7 9 12 11 10 11 11 11 9 7 6 6
13 10 9 7 14 19 7 5 10 7 6 7 8 15 7 12 20 19 12 19 10 7 3 10 9 10 7 4 2 5 3 1 1 3 7 11 8 8 10 10 8 8 8 7 11 12 12 11 9 10 11 7 4 5
14 10 9 9 6 6 9 13 8 5 6 7 5 9 6 3 5 8 10 10 7 12 12 14 17 15 10 8 10 7 6 5 1 2 3 6 7 10 12 6 6 9 8 6 10 11 11 10 8 8 7 5 5 4
13 11 7 5 5 5 5 9 8 8 3 3 7 4 3 3 9 13 5 8 9 13 16 18 18 14 15 12 13 8 5 2 3 4 3 4 4 8 9 8 8 8 7 8 8 9 9 10 10 7 6 5 3 2
6 5 5 6 11 5 5 6 9 5 6 4 4 5 4 5 16 6 4 6 6 15 18 19 21 22 20 14 10 6 1 3 4 3 3 6 6 7 8 11 8 6 7 7 6 5 8 9 8 8 7 4 4 3
5 7 5 5 4 3 3 4 3 3 2 3 3 3 3 9 4 4 2 5 13 12 16 20 19 17 19 14 7 2 3 8 10 5 2 6 11 10 9 8 8 3 3 5 6 8 9 9 9 6 6 5 4 5
1 5 6 5 4 4 4 3 2 1 1 3 4 4 7 2 3 5 3 11 14 18 16 15 17 16 12 6 1 4 8 10 9 6 5 6 10 8 8 9 7 6 9 11 12 13 12 11 10 9 6 6 5 5
3 3 3 6 6 6 5 5 6 2 3 4 4 4 1 4 3 3 4 14 14 12 11 9 9 9 7 6 6 7 7 6 5 5 5 8 7 5 4 2 3 5 6 8 10 12 11 11 9 9 8 5 6 5
3 5 2 12 4 3 2 3 3 4 3 7 6 4 4 4 3 3 5 4 3 3 5 6 6 5 4 5 7 7 6 7 2 3 4 2 3 2 4 4 3 5 8 10 10 10 10 12 11 7 5 8 7 8
4 10 10 5 4 3 6 5 3 5 8 6 2 3 2 4 4 4 5 4 3 4 4 4 4 3 3 3 3 4 6 9 7 4 5 7 8 7 10 10 11 11 12 12 9 10 11 11 12 11 10 10 10 11
4 10 4 3 1 2 3 6 7 11 8 6 4 3 7 8 6 3 3 4 6 8 7 6 7 8 10 10 4 1 4 7 11 10 11 12 13 14 14 15 14 13 12 12 11 10 10 11 11 10 9 8 9 9
5 5 4 2 2 3 7 10 12 11 8 9 8 9 11 11 10 12 12 10 8 8 8 8 7 9 12 12 9 9 6 6 7 12 15 16 15 14 14 14 14 14 14 13 13 14 15 15 14 12 12 14 10 11
6 2 1 2 4 6 8 17 8 4 5 6 8 4 9 6 4 3 7 11 13 16 17 14 10 13 15 12 10 9 10 10 8 10 15 17 16 15 15 15 15 14 14 14 14 13 13 12 13 12 11 14 11 11
5 4 4 3 4 7 7 9 5 9 6 3 5 7 7 4 4 3 4 15 16 16 15 11 11 16 15 13 13 12 8 7 10 13 15 16 17 17 16 15 15 14 14 13 12 11 10 9 7 9 16 16 14 12
Wind_Direction
69 73 75 79 81 83 89 94 96 99 103 104 101 103 103 112 113 126 107 120 125 98 77 106 119 113 123 124 126 157 86 4 45 73 116 209 151 214 241 247 177 202 173 203 85 178 246 29 332 203 231 257 289 290
70 73 77 81 83 86 89 93 96 99 102 107 109 101 97 98 112 133 106 123 117 100 101 98 94 105 126 131 129 108 132 117 143 87 57 105 71 50 159 274 223 278 187 199 184 231 290 306 265 283 271 271 274 262
67 71 76 80 84 86 88 90 93 96 99 102 105 103 98 97 105 115 110 114 108 97 77 91 86 106 113 127 146 109 120 124 122 105 149 164 169 133 193 242 224 280 197 219 14 251 242 255 283 294 290 261 268 272
68 71 72 76 81 86 89 91 94 96 98 99 102 105 100 99 96 104 97 95 110 98 95 49 102 103 115 156 163 155 133 127 132 135 109 147 171 187 231 241 213 202 16 249 259 274 267 265 278 293 306 278 267 272
63 68 74 77 79 80 84 89 93 97 99 100 104 109 104 94 90 91 87 76 75 88 135 99 104 104 125 131 126 185 178 165 147 111 118 213 232 190 238 252 250 190 235 199 247 254 260 273 280 293 289 317 312 306
64 67 71 76 80 84 86 88 91 93 98 103 104 102 98 102 107 96 67 62 73 87 88 64 62 108 172 194 180 178 189 203 205 165 191 217 210 173 209 242 225 243 251 262 255 274 280 283 289 260 274 286 291 290
61 66 71 75 77 79 81 82 85 89 93 94 95 93 86 80 88 77 87 98 81 84 74 45 3 64 183 178 202 211 210 209 210 211 214 212 200 203 225 265 267 276 273 273 276 281 280 258 268 277 287 296 295 288
60 65 69 71 73 74 77 79 83 88 91 93 98 88 85 81 87 86 84 83 75 77 68 87 293 33 107 146 168 195 203 218 219 214 216 208 181 199 251 257 271 275 274 276 283 277 293 292 275 280 291 296 293 291
58 62 67 70 72 74 76 77 78 79 82 87 91 91 75 48 47 67 60 43 76 67 89 79 113 226 146 167 190 186 194 72 228 196 207 170 191 225 232 234 250 270 255 256 289 297 303 296 293 296 305 294 290 287
54 56 61 66 70 76 75 72 74 77 83 86 69 59 59 56 72 67 32 41 56 57 61 110 284 299 142 74 330 109 155 225 240 237 143 177 246 248 254 262 274 282 292 302 290 295 308 307 310 300 293 288 288 290
49 49 50 53 56 63 64 53 47 40 52 45 41 54 72 71 55 50 66 23 49 34 193 212 197 189 60 108 229 216 206 206 236 254 164 232 263 259 244 275 297 275 303 306 299 295 294 292 305 309 307 299 292 289
39 42 43 43 44 44 36 36 51 47 54 51 77 75 28 42 51 76 261 293 168 229 177 165 207 206 191 176 99 272 225 88 246 138 153 262 243 203 242 275 282 276 291 297 300 301 301 302 310 307 303 298 297 296
345 346 5 15 20 22 19 22 25 16 42 70 60 56 63 60 65 132 201 262 73 171 174 183 209 158 144 180 206 65 78 235 53 63 228 227 203 173 273 273 258 292 308 312 320 326 323 317 309 307 298 295 302 306
292 291 297 295 311 317 335 357 357 358 17 36 69 358 143 278 238 178 220 176 185 170 209 205 187 187 186 174 183 219 239 63 344 294 240 223 194 181 195 325 315 321 331 330 325 323 321 318 317 315 312 308 312 315
330 321 308 290 273 264 247 254 298 339 3 312 284 239 220 232 259 192 208 184 204 268 267 176 194 172 174 219 193 216 351 248 205 240 328 47 39 11 348 340 342 334 326 327 329 327 323 320 320 319 321 318 328 324
313 327 14 320 270 237 225 225 241 269 271 256 240 262 246 30 301 266 143 151 15 174 149 98 169 218 229 212 199 209 209 206 228 310 5 359 359 352 348 344 328 322 326 326 333 336 331 325 324 321 324 322 332 338
293 305 304 317 273 225 224 214 249 233 240 245 250 238 259 284 246 255 245 194 207 183 197 131 176 214 241 217 207 211 131 129 250 300 346 340 326 337 344 342 338 335 335 335 333 336 332 328 328 332 318 310 316 331
265 266 254 244 236 217 208 206 227 242 237 239 241 243 222 234 243 243 250 254 223 191 174 215 175 228 219 225 71 82 96 44 320 337 330 314 335 334 328 328 336 341 340 340 340 337 337 331 330 326 330 319 328 332
280 255 235 236 258 225 210 206 201 246 233 242 246 246 242 254 262 268 267 259 229 203 180 179 226 225 226 144 132 124 157 304 306 313 307 320 340 329 320 320 329 323 338 350 343 338 337 328 334 332 340 330 321 331
279 283 280 228 252 229 222 212 195 230 237 228 234 240 232 243 265 257 237 210 195 180 200 216 216 201 190 189 198 188 244 282 303 314 315 333 338 339 339 328 300 331 312 344 349 336 336 335 337 343 334 335 327 326
272 274 269 289 252 231 258 252 204 220 231 228 239 235 240 246 240 233 218 194 178 198 220 215 204 211 196 183 223 157 154 75 27 336 334 335 342 341 345 332 336 339 331 318 353 349 342 341 339 341 357 352 331 326
272 275 268 270 246 234 228 223 225 206 218 226 215 211 225 194 215 224 199 182 217 227 219 210 207 189 181 176 151 150 140 113 78 317 324 348 4 359 347 341 345 331 332 327 349 356 352 351 349 357 359 360 14 10
266 256 254 248 251 242 243 215 215 215 235 226 187 202 244 209 210 179 182 214 225 222 212 202 189 180 162 166 163 169 165 177 305 333 357 3 26 353 346 340 333 338 328 329 329 335 0 7 359 344 341 2 341 335
227 214 221 225 208 254 252 212 205 242 217 199 197 203 222 201 171 188 208 188 190 175 174 165 156 154 151 153 157 149 119 351 9 105 34 26 343 354 358 355 344 305 324 327 329 333 331 333 347 353 338 307 293 281
255 206 218 248 275 267 276 298 273 224 280 299 237 232 234 168 190 213 92 34 49 96 136 157 164 160 138 131 132 140 319 338 344 342 0 314 322 327 345 1 1 8 294 308 316 327 325 311 298 313 321 304 304 272
260 7 6 4 340 316 334 290 294 223 234 274 351 352 325 266 108 44 46 9 36 56 69 92 115 114 106 101 41 318 323 322 314 307 326 337 338 317 309 320 337 329 321 325 323 322 318 313 298 269 286 277 280 258
25 313 356 8 298 288 296 278 281 314 353 356 1 312 343 62 59 89 67 29 39 53 61 61 54 56 43 9 342 331 318 305 299 324 345 325 313 279 273 26 6 337 341 348 345 348 329 321 311 302 253 255 251 244
343 47 337 320 315 277 235 310 33 27 13 341 334 6 25 32 60 57 60 54 40 13 32 39 47 36 16 346 334 331 352 4 323 217 210 180 0 105 154 156 214 281 297 316 326 326 330 335 305 296 261 254 254 253
13 0 348 329 310 345 27 13 36 25 354 348 4 6 75 64 60 103 72 58 17 18 31 27 25 349 308 292 315 336 356 3 5 354 322 311 310 302 316 309 303 301 298 301 289 298 301 304 311 314 276 278 262 245
309 340 320 307 103 52 5 357 326 317 303 296 298 146 103 101 78 74 66 42 31 32 23 5 352 350 355 345 325 323 5 13 5 357 350 337 327 320 315 313 311 305 301 284 279 277 272 280 294 294 295 248 241 258
294 310 297 311 282 57 7 347 343 336 302 289 281 244 147 132 100 63 49 31 22 16 10 9 355 350 351 350 342 327 314 346 351 335 328 324 323 319 315 310 306 302 297 292 289 283 277 277 271 276 263 269 251 237
304 282 60 277 294 338 334 352 319 287 322 342 8 117 128 124 103 93 21 0 0 358 354 353 349 347 342 332 317 299 294 315 303 300 313 319 317 316 315 312 305 300 297 293 287 285 285 282 277 272 263 238 229 217
294 15 64 3 344 354 336 335 344 346 355 45 42 51 63 83 90 116 13 11 351 332 335 344 340 337 335 331 327 320 295 298 289 295 303 310 317 316 315 312 306 300 295 294 295 293 290 291 284 244 212 204 199 198